Weather History for Grafton, ND

Change the Weather History Date:

Wednesday, February 6, 2013

  Actual Average Record
Temperature  
Mean Temperature 9 °F -  
Max Temperature 15 °F 19 °F 46 °F (1990)
Min Temperature 1 °F 0 °F -32 °F (1959)
Degree Days  
Heating Degree Days 56    
Moisture  
Dew Point 9 °F    
Average Humidity 88    
Maximum Humidity 93    
Minimum Humidity 78    
Precipitation  
Precipitation 0.00 in - - ()
Sea Level Pressure  
Sea Level Pressure 30.01 in    
Wind  
Wind Speed 11 mph (ENE)    
Max Wind Speed 15 mph    
Max Gust Speed -    
Visibility 7 miles    
Events Snow    
Averages and records for this station are not official NWS values.
T = Trace of Precipitation, MM = Missing Value Source: NWS Daily Summary

Daily Weather History Graph

Daily Weather History Graph

Search for Another Location

Airport:

Trip Planner

Search our weather history database for the weather conditions in past years. The results will help you decide how hot, cold, wet, or windy it might be!

Date:

Astronomy

Feb. 06, 2013 Rise Set
Actual Time 7:50 AM CST 5:37 PM CST
Civil Twilight 7:17 AM CST 6:10 PM CST
Nautical Twilight 6:40 AM CST 6:47 PM CST
Astronomical Twilight 6:04 AM CST 7:23 PM CST
Moon 4:45 AM CST (2/6) 1:47 PM CST (2/6)
Length of Visible Light 10h 52m
Length of Day
9h 46m
Waning Crescent, 17% of the Moon is Illuminated
Feb 6
Waning Crescent
Feb 10
New
Feb 17
First Quarter
Feb 25
Full
Mar 4
Last Quarter

Hourly Weather History & Observations

Time (CST) Temp. Windchill Dew Point Humidity Pressure Visibility Wind Dir Wind Speed Gust Speed Precip Events Conditions
12:15 AM 6.8 °F -10.0 °F 3.2 °F 85% 29.98 in 10.0 mi SSE 13.8 mph - N/A   Overcast
12:35 AM 6.8 °F -5.9 °F 3.2 °F 85% 29.99 in 10.0 mi SSE 8.1 mph - N/A   Overcast
12:55 AM 6.8 °F -4.8 °F 3.2 °F 85% 30.00 in 10.0 mi South 6.9 mph - N/A   Overcast
1:15 AM 8.6 °F -5.5 °F 5.0 °F 85% 29.99 in 10.0 mi South 10.4 mph - N/A   Overcast
1:35 AM 8.6 °F -4.7 °F 5.0 °F 85% 29.99 in 10.0 mi South 9.2 mph - N/A   Overcast
2:15 AM 8.6 °F -4.7 °F 5.0 °F 85% 29.98 in 10.0 mi South 9.2 mph - N/A   Overcast
2:35 AM 8.6 °F -4.7 °F 6.8 °F 92% 29.97 in 10.0 mi SSE 9.2 mph - N/A   Mostly Cloudy
2:55 AM 8.6 °F -6.3 °F 6.8 °F 92% 29.96 in 10.0 mi SSE 11.5 mph - N/A   Partly Cloudy
3:15 AM 8.6 °F -6.3 °F 6.8 °F 92% 29.95 in 10.0 mi SSE 11.5 mph - N/A   Scattered Clouds
3:35 AM 10.4 °F -4.1 °F 6.8 °F 85% 29.95 in 10.0 mi South 11.5 mph - N/A   Scattered Clouds
3:55 AM 10.4 °F -5.4 °F 8.6 °F 92% 29.93 in 10.0 mi SSE 13.8 mph - N/A   Partly Cloudy
4:15 AM 10.4 °F -4.8 °F 8.6 °F 92% 29.93 in 10.0 mi South 12.7 mph - N/A   Clear
4:35 AM 12.2 °F -2.5 °F 8.6 °F 85% 29.93 in 10.0 mi South 12.7 mph - N/A   Clear
4:55 AM 12.2 °F -3.1 °F 8.6 °F 85% 29.93 in 10.0 mi South 13.8 mph - N/A   Clear
5:15 AM 12.2 °F -1.8 °F 8.6 °F 85% 29.93 in 10.0 mi South 11.5 mph - N/A   Mostly Cloudy
5:35 AM 12.2 °F -0.2 °F 8.6 °F 85% 29.94 in 2.0 mi SSE 9.2 mph - N/A Snow Light Snow
5:55 AM 12.2 °F -1.0 °F 8.6 °F 85% 29.94 in 4.0 mi SSE 10.4 mph - N/A Snow Light Snow
6:15 AM 12.2 °F -0.2 °F 8.6 °F 85% 29.94 in 1.8 mi SSE 9.2 mph - N/A Snow Light Snow
6:35 AM 12.2 °F -1.0 °F 8.6 °F 85% 29.94 in 2.5 mi SE 10.4 mph - N/A Snow Light Snow
7:35 AM 12.2 °F -1.0 °F 10.4 °F 92% 29.94 in 2.0 mi SE 10.4 mph - N/A Snow Light Snow
7:55 AM 12.2 °F -2.5 °F 10.4 °F 92% 29.93 in 3.0 mi SE 12.7 mph - N/A Snow Light Snow
8:15 AM 12.2 °F -1.0 °F 8.6 °F 85% 29.94 in 5.0 mi SE 10.4 mph - N/A Snow Light Snow
8:35 AM 12.2 °F 0.7 °F 8.6 °F 85% 29.95 in 3.0 mi SE 8.1 mph - N/A Snow Light Snow
8:55 AM 12.2 °F 2.9 °F 8.6 °F 85% 29.96 in 3.0 mi ESE 5.8 mph - N/A Snow Light Snow
9:35 AM 12.2 °F -1.0 °F 8.6 °F 85% 29.95 in 4.0 mi SE 10.4 mph - N/A Snow Light Snow
9:55 AM 12.2 °F -0.2 °F 8.6 °F 85% 29.95 in 6.0 mi ESE 9.2 mph - N/A Snow Light Snow
10:15 AM 14.0 °F 1.2 °F 10.4 °F 86% 29.95 in 5.0 mi ESE 10.4 mph - N/A Snow Light Snow
10:35 AM 14.0 °F 1.2 °F 10.4 °F 86% 29.95 in 4.0 mi ESE 10.4 mph - N/A Snow Light Snow
10:55 AM 14.0 °F 2.0 °F 10.4 °F 86% 29.96 in 1.0 mi SE 9.2 mph - N/A Snow Light Snow
11:15 AM 14.0 °F 3.9 °F 10.4 °F 86% 29.96 in 1.0 mi ESE 6.9 mph - N/A Snow Light Snow
11:35 AM 14.0 °F 2.0 °F 10.4 °F 86% 29.96 in 1.8 mi East 9.2 mph - N/A Snow Light Snow
11:55 AM 14.0 °F 2.9 °F 10.4 °F 86% 29.97 in 1.2 mi ENE 8.1 mph - N/A Snow Light Snow
12:15 PM 14.0 °F 3.9 °F 10.4 °F 86% 29.97 in 1.0 mi ENE 6.9 mph - N/A Snow Light Snow
12:35 PM 14.0 °F 2.9 °F 12.2 °F 93% 29.96 in 0.8 mi NE 8.1 mph - N/A Snow Light Snow
12:55 PM 14.0 °F 2.0 °F 12.2 °F 93% 29.96 in 0.8 mi ENE 9.2 mph - N/A Snow Light Snow
1:15 PM 15.8 °F 2.7 °F 12.2 °F 86% 29.94 in 0.5 mi ENE 11.5 mph - N/A Snow Snow
1:35 PM 15.8 °F 4.2 °F 12.2 °F 86% 29.95 in 2.0 mi ENE 9.2 mph - N/A Snow Light Snow
1:55 PM 15.8 °F 3.4 °F 14.0 °F 93% 29.95 in 0.2 mi NE 10.4 mph - N/A Snow Heavy Snow
2:15 PM 15.8 °F 3.4 °F 14.0 °F 93% 29.95 in 1.2 mi NE 10.4 mph - N/A Snow Light Snow
2:35 PM 15.8 °F 2.1 °F 14.0 °F 93% 29.94 in 1.0 mi NE 12.7 mph - N/A Snow Light Snow
2:55 PM 15.8 °F 1.4 °F 14.0 °F 93% 29.95 in 1.0 mi NE 13.8 mph - N/A Snow Light Snow
3:35 PM 15.8 °F 1.4 °F 14.0 °F 93% 29.97 in 7.0 mi NNE 13.8 mph - N/A Snow Light Snow
3:55 PM 15.8 °F 2.1 °F 14.0 °F 93% 29.98 in 9.0 mi NNE 12.7 mph - N/A   Overcast
4:15 PM 15.8 °F 2.1 °F 14.0 °F 93% 29.99 in 9.0 mi NNE 12.7 mph - N/A   Overcast
4:35 PM 15.8 °F 0.9 °F 14.0 °F 93% 30.00 in 10.0 mi North 15.0 mph - N/A   Overcast
4:55 PM 15.8 °F 1.4 °F 14.0 °F 93% 30.01 in 9.0 mi NNE 13.8 mph - N/A   Overcast
5:15 PM 15.8 °F 0.9 °F 14.0 °F 93% 30.02 in 10.0 mi NNE 15.0 mph - N/A   Overcast
5:35 PM 15.8 °F 1.4 °F 14.0 °F 93% 30.03 in 10.0 mi NNE 13.8 mph - N/A   Overcast
5:55 PM 15.8 °F 2.7 °F 14.0 °F 93% 30.04 in 10.0 mi NNE 11.5 mph - N/A   Overcast
6:15 PM 15.8 °F 3.4 °F 14.0 °F 93% 30.06 in 10.0 mi NNE 10.4 mph - N/A   Overcast
6:35 PM 15.8 °F 1.4 °F 14.0 °F 93% 30.06 in 10.0 mi North 13.8 mph - N/A   Overcast
6:55 PM 14.0 °F 0.5 °F 10.4 °F 86% 30.08 in 10.0 mi North 11.5 mph - N/A   Overcast
7:15 PM 14.0 °F -0.2 °F 10.4 °F 86% 30.08 in 10.0 mi North 12.7 mph - N/A   Overcast
7:35 PM 14.0 °F -0.2 °F 8.6 °F 79% 30.09 in 10.0 mi North 12.7 mph - N/A   Overcast
7:55 PM 14.0 °F 0.5 °F 8.6 °F 79% 30.10 in 10.0 mi North 11.5 mph - N/A   Overcast
8:15 PM 12.2 °F -2.5 °F 8.6 °F 85% 30.11 in 10.0 mi North 12.7 mph - N/A   Overcast
8:35 PM 12.2 °F -3.1 °F 8.6 °F 85% 30.12 in 10.0 mi North 13.8 mph - N/A   Overcast
8:55 PM 10.4 °F -4.1 °F 8.6 °F 92% 30.13 in 10.0 mi North 11.5 mph - N/A   Overcast
9:15 PM 10.4 °F -5.4 °F 6.8 °F 85% 30.14 in 10.0 mi North 13.8 mph - N/A   Overcast
9:35 PM 8.6 °F -7.7 °F 5.0 °F 85% 30.14 in 10.0 mi North 13.8 mph - N/A   Overcast
9:55 PM 6.8 °F -8.6 °F 5.0 °F 92% 30.14 in 10.0 mi North 11.5 mph - N/A   Overcast
10:15 PM 6.8 °F -10.0 °F 3.2 °F 85% 30.16 in 10.0 mi NNW 13.8 mph - N/A   Overcast
10:35 PM 5.0 °F -12.3 °F 1.4 °F 85% 30.15 in 10.0 mi North 13.8 mph - N/A   Mostly Cloudy
10:55 PM 5.0 °F -13.0 °F -0.4 °F 78% 30.17 in 10.0 mi NNW 15.0 mph - N/A   Clear
11:15 PM 3.2 °F -13.9 °F -0.4 °F 85% 30.18 in 10.0 mi NNW 12.7 mph - N/A   Clear
11:35 PM 3.2 °F -13.9 °F -0.4 °F 85% 30.19 in 10.0 mi NNW 12.7 mph - N/A   Partly Cloudy
11:55 PM 1.4 °F -16.9 °F -0.4 °F 92% 30.19 in 10.0 mi NNW 13.8 mph - N/A   Clear